AC8JV Weather Reports


Display with metric or nautical units.
time (UTC)temp
F
wind
direction
speed
MPH
gust
MPH
rain 1hr
in
rain 24hr
in
rain mn
in
humidity
%
barometer
mb
20260906115008 54 45 2.0 3.0 0.00 0.00 0.00 93 1020.7
20260906114013 55 21 2.0 3.0 0.00 0.00 0.00 93 1020.7
20260906113003 54 21 1.0 3.0 0.00 0.00 0.00 93 1020.5
20260906111959 55 21 2.0 4.0 0.00 0.00 0.00 93 1020.6
20260906111016 54 25 2.0 4.0 0.00 0.00 0.00 93 1020.5
20260906110010 54 30 2.0 4.0 0.00 0.00 0.00 93 1020.4
20260906105004 54 44 1.0 4.0 0.00 0.00 0.00 92 1020.3
20260906104005 55 42 1.0 5.0 0.00 0.00 0.00 92 1020.4
20260906103025 55 42 1.0 5.0 0.00 0.00 0.00 92 1020.3
20260906102024 55 37 2.0 4.0 0.00 0.00 0.00 92 1020.3
20260906100958 55 38 1.0 3.0 0.00 0.00 0.00 92 1020.3
20260906100017 55 38 1.0 3.0 0.00 0.00 0.00 92 1020.1
20260906095015 55 38 1.0 3.0 0.00 0.00 0.00 91 1020.1
20260906094001 55 38 1.0 3.0 0.00 0.00 0.00 92 1020.0
20260906093007 56 60 1.0 3.0 0.00 0.00 0.00 92 1020.2
20260906092003 56 60 1.0 3.0 0.00 0.00 0.00 91 1020.2
20260906091016 56 65 1.0 4.0 0.00 0.00 0.00 91 1020.1
20260906090007 56 64 2.0 5.0 0.00 0.00 0.00 91 1019.9
20260906085007 56 69 2.0 4.0 0.00 0.00 0.00 90 1019.7
20260906084004 56 66 2.0 3.0 0.00 0.00 0.00 90 1019.6
20260906083006 57 74 1.0 3.0 0.00 0.00 0.00 90 1019.6
20260906082013 57 74 1.0 3.0 0.00 0.00 0.00 90 1019.7
20260906081011 57 74 2.0 4.0 0.00 0.00 0.00 90 1019.6
20260906080012 57 67 1.0 4.0 0.00 0.00 0.00 90 1019.5
20260906075000 57 75 2.0 5.0 0.00 0.00 0.00 90 1019.5
20260906074003 58 66 2.0 3.0 0.00 0.00 0.00 90 1019.2
20260906073002 58 65 1.0 4.0 0.00 0.00 0.00 89 1019.2
20260906072005 58 69 2.0 3.0 0.00 0.00 0.00 89 1019.1
20260906071012 58 69 1.0 4.0 0.00 0.00 0.00 89 1019.4
20260906065958 59 51 1.0 4.0 0.00 0.00 0.00 89 1019.4
20260906064958 59 74 2.0 4.0 0.00 0.00 0.00 89 1019.3
20260906064005 59 74 2.0 5.0 0.00 0.00 0.00 88 1019.4
20260906063010 60 82 1.0 3.0 0.00 0.00 0.00 88 1019.4
20260906062016 60 85 2.0 3.0 0.00 0.00 0.00 88 1019.4
20260906061001 60 86 1.0 3.0 0.00 0.00 0.00 88 1019.5
20260906060041 61 86 1.0 3.0 0.00 0.00 0.00 88 1019.2
20260906055022 61 88 1.0 4.0 0.00 0.00 0.00 88 1019.2
20260906054003 61 90 2.0 4.0 0.00 0.00 0.00 88 1019.4
20260906053006 62 96 2.0 6.0 0.00 0.00 0.00 88 1019.2
20260906052001 62 94 4.0 6.0 0.00 0.00 0.00 88 1019.1
20260906051000 62 96 4.0 7.0 0.00 0.00 0.00 87 1019.0
20260906050001 63 92 2.0 7.0 0.00 0.00 0.00 88 1019.1
20260906045009 63 81 5.0 10.0 0.00 0.00 0.00 88 1018.9
20260906044027 63 75 3.0 9.0 0.00 0.00 0.00 88 1018.8
20260906043001 64 91 5.0 10.0 0.00 0.00 0.00 88 1018.9
20260906042001 64 107 3.0 8.0 0.00 0.00 0.00 88 1018.8
20260906041002 65 65 3.0 10.0 0.00 0.00 0.00 88 1018.6
20260906040003 65 86 3.0 9.0 0.00 0.00 0.00 88 1018.5
20260906035003 66 91 4.0 9.0 0.00 0.00 0.00 88 1018.3
20260906034009 66 89 3.0 8.0 0.00 0.00 0.00 88 1018.3
20260906033007 67 90 3.0 8.0 0.00 0.00 0.00 87 1018.4
20260906031959 67 86 2.0 6.0 0.00 0.00 0.00 86 1018.4
20260906031001 68 64 3.0 6.0 0.00 0.00 0.00 85 1018.3
20260906030024 68 89 2.0 4.0 0.00 0.00 0.00 85 1018.2
20260906024959 68 81 2.0 6.0 0.00 0.00 0.00 84 1018.1
20260906024018 69 71 1.0 5.0 0.00 0.00 0.00 85 1018.0
20260906023000 69 86 2.0 7.0 0.00 0.00 0.00 85 1018.0
20260906022002 69 86 3.0 8.0 0.00 0.00 0.00 85 1017.9
20260906021003 69 74 2.0 7.0 0.00 0.00 0.00 84 1017.8
20260906020005 69 80 3.0 6.0 0.00 0.00 0.00 85 1017.8
20260906015027 70 67 3.0 6.0 0.00 0.00 0.00 86 1017.7
20260906014003 70 93 3.0 7.0 0.00 0.00 0.00 87 1017.5
20260906013001 70 61 2.0 6.0 0.00 0.00 0.00 88 1017.5
20260906012016 70 50 2.0 7.0 0.00 0.00 0.00 87 1017.5
20260906011009 70 56 2.0 6.0 0.00 0.00 0.00 86 1017.4
20260906010019 71 81 2.0 5.0 0.00 0.00 0.00 86 1017.3
20260906005004 71 80 2.0 8.0 0.00 0.00 0.00 86 1017.2
20260906004007 71 48 2.0 6.0 0.00 0.00 0.00 85 1017.0
20260906003018 72 20 1.0 4.0 0.00 0.00 0.00 84 1016.8
20260906002003 72 17 1.0 3.0 0.00 0.00 0.00 84 1016.8
20260906001010 73 17 2.0 4.0 0.00 0.00 0.00 83 1017.0
20260906000005 73 19 2.0 4.0 0.00 0.00 0.00 83 1016.7
20260905235005 74 36 1.0 3.0 0.00 0.00 0.00 82 1016.6
20260905234012 74 40 1.0 4.0 0.00 0.00 0.00 82 1016.7
20260905233016 74 49 0.0 4.0 0.00 0.00 0.00 82 1016.7
20260905232026 74 71 2.0 4.0 0.00 0.00 0.00 82 1016.9
20260905231015 75 34 1.0 4.0 0.00 0.00 0.00 81 1016.6
20260905230031 75 36 2.0 7.0 0.00 0.00 0.00 81 1016.7
20260905225003 75 39 2.0 6.0 0.00 0.00 0.00 80 1016.6
20260905224002 76 80 4.0 10.0 0.00 0.00 0.00 80 1016.5
20260905223010 76 101 2.0 11.0 0.00 0.00 0.00 80 1016.4
20260905222005 76 34 2.0 10.0 0.00 0.00 0.00 81 1016.2
20260905221002 76 94 6.0 11.0 0.00 0.00 0.00 80 1016.1
20260905220005 76 71 4.0 9.0 0.00 0.00 0.00 83 1016.1
20260905215006 75 126 5.0 11.0 0.00 0.00 0.00 86 1016.2
20260905214007 74 33 3.0 11.0 0.00 0.00 0.00 86 1016.3
20260905213015 74 46 2.0 9.0 0.00 0.00 0.00 88 1016.3
20260905212006 73 94 2.0 8.0 0.00 0.00 0.00 88 1016.2
20260905211026 73 99 4.0 9.0 0.00 0.00 0.00 88 1016.0
20260905210003 73 85 3.0 7.0 0.00 0.00 0.00 88 1016.2
20260905205004 72 94 2.0 6.0 0.00 0.00 0.00 88 1016.0
20260905204027 72 20 1.0 10.0 0.00 0.00 0.00 88 1016.1
20260905203009 72 34 4.0 8.0 0.00 0.00 0.00 88 1016.3
20260905202016 72 44 3.0 13.0 0.00 0.00 0.00 88 1016.3
20260905201002 72 86 5.0 11.0 0.00 0.00 0.00 88 1016.6
20260905200014 72 90 4.0 12.0 0.00 0.00 0.00 87 1016.6
20260905195024 72 67 5.0 13.0 0.00 0.00 0.00 88 1016.6
20260905194013 72 87 6.0 13.0 0.00 0.00 0.00 89 1016.5
20260905193013 71 69 3.0 11.0 0.00 0.00 0.00 89 1016.7
20260905191024 71 105 4.0 13.0 0.00 0.00 0.00 89 1016.7
20260905190009 71 88 5.0 9.0 0.00 0.00 0.00 89 1016.7
20260905185006 71 57 4.0 9.0 0.00 0.00 0.00 89 1016.7
20260905184009 71 106 3.0 7.0 0.00 0.00 0.00 89 1016.7
20260905183002 71 31 2.0 7.0 0.00 0.00 0.00 88 1016.6
20260905182002 71 32 2.0 9.0 0.00 0.00 0.00 88 1016.6
20260905181007 71 126 2.0 7.0 0.00 0.00 0.00 89 1016.7
20260905180006 71 51 2.0 8.0 0.00 0.00 0.00 89 1016.7
20260905175013 71 104 4.0 9.0 0.00 0.00 0.00 89 1016.8
20260905174001 71 92 5.0 11.0 0.00 0.00 0.00 89 1016.7
20260905173007 71 51 3.0 10.0 0.00 0.00 0.00 90 1016.8
20260905172009 71 93 4.0 9.0 0.00 0.00 0.00 91 1016.7
20260905171019 70 60 2.0 6.0 0.00 0.00 0.00 91 1016.8
20260905170014 70 18 3.0 8.0 0.00 0.00 0.00 92 1016.8
20260905165003 70 91 3.0 6.0 0.00 0.02 0.00 91 1016.5
20260905164014 70 55 3.0 5.0 0.00 0.02 0.00 92 1016.6
20260905163001 70 48 2.0 8.0 0.00 0.02 0.00 92 1016.9
20260905162002 69 49 2.0 7.0 0.00 0.02 0.00 92 1016.7
20260905161002 69 87 1.0 8.0 0.00 0.02 0.00 93 1016.8
20260905160008 69 65 3.0 6.0 0.00 0.02 0.00 93 1016.7
20260905155005 69 35 2.0 9.0 0.00 0.06 0.00 93 1016.5
20260905154003 69 97 5.0 9.0 0.00 0.06 0.00 93 1016.7
20260905153048 69 82 2.0 7.0 0.00 0.06 0.00 93 1016.4
20260905152019 69 28 3.0 6.0 0.00 0.06 0.00 93 1016.4
20260905151010 69 69 3.0 6.0 0.00 0.06 0.00 92 1016.2
20260905150021 69 27 3.0 8.0 0.00 0.06 0.00 93 1016.5
20260905145001 69 97 3.0 9.0 0.00 0.26 0.00 93 1016.3
20260905144002 69 92 3.0 10.0 0.00 0.26 0.00 93 1016.2
20260905143002 69 86 3.0 9.0 0.00 0.26 0.00 93 1016.1
20260905142007 69 97 5.0 9.0 0.00 0.26 0.00 93 1016.2
20260905141005 69 98 3.0 9.0 0.00 0.26 0.00 93 1016.1
20260905140003 69 114 3.0 9.0 0.00 0.26 0.00 93 1016.1
20260905135013 69 36 4.0 9.0 0.00 0.60 0.00 94 1015.9
20260905134002 69 78 4.0 9.0 0.00 0.60 0.00 94 1016.0
20260905133011 69 120 4.0 10.0 0.00 0.60 0.00 94 1016.0
20260905132004 69 58 3.0 7.0 0.00 0.60 0.00 94 1015.8
20260905131012 70 53 4.0 9.0 0.00 0.60 0.00 94 1015.8
20260905130007 70 61 5.0 9.0 0.00 0.60 0.00 95 1015.7
20260905125008 70 107 3.0 9.0 0.00 0.66 0.00 95 1015.7
20260905124017 70 114 5.0 10.0 0.00 0.66 0.00 95 1015.3
20260905123005 70 106 3.0 8.0 0.00 0.66 0.00 95 1015.3
20260905122019 70 82 3.0 6.0 0.00 0.66 0.00 95 1015.4
20260905121014 69 88 2.0 8.0 0.00 0.66 0.00 95 1015.5
20260905120004 69 86 2.0 4.0 0.00 0.66 0.00 95 1015.2